Tracking 19795 objects as of 20-Jul-2019
HD Live streaming from Space Station
objects crossing your sky now

COSMOS 1275 DEB

Track COSMOS 1275 DEB now!
10-day predictions


NORAD ID: 17637
Int'l Code: 1981-053LK
Perigee: 937.7 km
Apogee: 1,143.1 km
Inclination: 83.1 °
Period: 105.8 minutes
Semi major axis: 7411 km
RCS: 0.0105 m2 (small)
Launch date: June 4, 1981
Source: Commonwealth of Independent States (former USSR) (CIS)
Launch site: PLESETSK MISSILE AND SPACE COMPLEX (PKMTR)

Note: This is SATELLITE DEBRIS
aabbcc
Your satellite tracking list
Your tracking list is empty




NASA's NSSDC Master Catalog

Two Line Element Set (TLE):
1 17637U 81053LG  19200.88535094 +.00000218 +00000-0 +25455-3 0  9990
2 17637 083.0712 163.6002 0138600 320.5008 067.2115 13.60666965692873
Source of the keplerian elements: AFSPC